#timestamp,LO_Frequency,Hit,StdDev 
1526835615.6,286047002.0,N
1526835635.5,286047004.2,N
1526835655.3,286047003.9,N
1526835675.1,286047002.0,N
1526835695.9,286047000.0,N
1526835715.7,286047002.8,N
1526835735.5,286047001.0,N
1526835755.4,286047000.7,N
1526835775.2,286047001.1,N
1526835795.1,286047000.6,N
1526835796.0,286047000.6,N
1526835815.8,286047000.0,N
1526835835.6,286046999.8,N
1526835855.5,286046999.8,N
1526835875.3,286046999.7,N
1526835895.1,286047002.5,N
1526835915.9,286047002.6,N
1526835935.7,286047002.6,N
1526835955.6,286046999.7,N
1526835975.4,286047000.5,N
1526835995.2,286046999.7,N
1526836015.1,286047002.1,N
1526836016.0,286047002.1,N
1526836035.8,286047000.2,N
1526836055.6,286047000.0,N
1526836075.5,286047000.1,N
1526836095.3,286047002.5,N
1526836115.2,286047002.7,N
1526836135.9,286046999.9,N
1526836155.7,286047002.5,N
1526836175.6,286047001.9,N
1526836195.4,286047002.1,N
1526836215.2,286047000.1,N
1526836235.1,286047002.6,N
1526836236.0,286047002.6,N
1526836255.8,286047002.8,N
1526836275.7,286047000.1,N
1526836295.5,286047002.0,N
1526836315.3,286047004.0,Y
1526836335.2,286047004.1,P
1526836355.0,286047004.2,N
1526836355.9,286047004.2,N
1526836375.8,286047001.5,N
1526836395.6,286047002.6,N
1526836415.4,286047002.5,N
1526836435.3,286047001.9,N
1526836455.1,286047002.7,N
1526836475.9,286047000.7,N
1526836495.7,286047000.3,N
1526836515.5,286047000.3,N
1526836535.4,286047000.5,N
1526836555.2,286047000.2,N
1526836575.0,286047001.5,N
1526836575.9,286047001.5,N
1526836595.8,286047001.8,N
1526836615.6,286047002.2,N
1526836635.5,286047004.2,Y
1526836655.3,286046999.9,P
1526836675.2,286046999.7,N
1526836695.0,286047002.2,N
1526836695.9,286047002.2,N
1526836715.8,286047002.6,N
1526836735.6,286047000.3,N
1526836755.4,286046999.8,N
1526836775.3,286047002.6,N
1526836795.1,286047002.2,N
1526836815.8,286047002.2,N
1526836835.7,286046999.7,N
1526836855.5,286047002.2,N
1526836875.4,286047000.7,N
1526836895.2,286046998.3,N
1526836915.0,286046998.2,N
1526836915.9,286046998.2,N
1526836935.8,286046999.1,N
1526836955.6,286046999.6,N
1526836975.5,286046999.2,N
1526836995.3,286046999.6,N
1526837015.1,286046999.0,N
1526837035.9,286047000.5,N
1526837055.7,286047002.3,N
1526837075.5,286047002.3,N
1526837095.4,286047001.9,N
1526837115.2,286047003.1,N
1526837135.1,286047003.9,N
1526837136.0,286047003.9,N
1526837155.8,286047002.0,N
1526837175.6,286047002.2,N
1526837195.5,286047001.7,N
1526837215.3,286047000.2,N
1526837235.2,286047001.1,N
1526837255.9,286046998.4,N
1526837275.7,286046996.5,N
1526837295.6,286046999.0,N
1526837315.4,286046999.4,N
1526837335.2,286047001.1,N
1526837355.1,286047000.4,N
1526837356.0,286047000.4,N
1526837375.8,286046999.8,N
1526837395.7,286047002.3,N
1526837415.5,286047001.3,N
1526837435.3,286047002.5,N
1526837455.2,286047002.0,N
1526837475.0,286047001.5,N
1526837475.9,286047001.5,N
1526837495.8,286047001.4,N
1526837515.6,286047004.2,N
1526837535.4,286047003.9,N
1526837555.3,286047001.5,N
1526837575.1,286047003.9,N
1526837595.8,286047002.0,N
1526837615.7,286047001.5,N
1526837635.5,286047002.2,N
1526837655.4,286047001.6,N
1526837675.2,286047002.7,N
1526837695.0,286047001.9,N
1526837695.9,286047001.9,N
1526837715.8,286047001.9,N
1526837735.6,286047002.4,N
1526837755.5,286047000.4,N
1526837775.3,286046998.3,N
1526837795.1,286047000.5,N
1526837815.9,286047001.6,N
1526837835.7,286047002.2,N
1526837855.5,286047000.1,N
1526837875.4,286046999.9,N
1526837895.2,286047002.3,N
1526837915.1,286047001.6,N
1526837916.0,286047001.6,N
1526837935.8,286047004.2,Y
1526837955.6,286047001.3,P
1526837975.5,286047001.8,P
1526837995.3,286047002.2,P
1526838015.1,286047001.4,Y
1526838035.9,286047002.6,P
1526838055.7,286047000.1,N
1526838075.6,286047002.4,N
1526838095.4,286047001.5,N
1526838115.2,286047000.3,N
1526838135.1,286046998.3,N
1526838136.0,286046998.3,N
1526838155.8,286046999.5,N
1526838175.7,286046998.2,N
1526838195.5,286046998.8,N
1526838215.3,286046999.2,N
1526838235.2,286046999.3,N
1526838255.0,286046996.8,N
1526838255.9,286046996.8,N
1526838275.8,286046999.3,N
1526838295.6,286046998.3,N
1526838315.4,286046998.9,N
1526838335.3,286046998.7,N
1526838355.1,286046999.0,N
1526838375.8,286046999.5,N
1526838395.7,286046996.5,N
1526838415.5,286046996.8,N
1526838435.4,286046996.9,N
1526838455.2,286046998.4,N
1526838475.0,286046998.8,N
1526838475.9,286046998.8,N
1526838495.8,286047000.0,N
1526838515.6,286046998.4,N
1526838535.4,286046997.5,N
1526838555.3,286046997.3,N
1526838575.1,286046999.0,N
1526838595.9,286047001.0,N
1526838615.7,286047001.2,N
1526838635.5,286046998.7,N
1526838655.4,286047000.9,N
1526838675.2,286047001.2,N
1526838695.0,286047002.1,N
1526838695.9,286047002.1,N
1526838715.8,286047002.4,N
1526838735.6,286047000.2,N
1526838755.5,286047000.9,N
1526838775.3,286047001.2,N
1526838795.1,286046999.8,N
1526838815.9,286047000.1,N
1526838835.7,286046999.9,N
1526838855.5,286047001.2,N
1526838875.4,286047002.7,N
1526838895.2,286047000.6,N
1526838915.1,286047002.6,N
1526838916.0,286047002.6,N
1526838935.8,286047002.8,N
1526838955.6,286047002.4,N
1526838975.5,286047002.0,N
1526838995.3,286046999.7,N
1526839015.1,286047002.8,N
1526839035.9,286047002.3,N
1526839055.7,286046999.9,N
1526839075.6,286047002.7,N
1526839095.4,286047000.2,N
1526839115.2,286046998.6,N
1526839135.1,286047001.1,N
1526839136.0,286047001.1,N
1526839155.8,286047002.3,N
1526839175.7,286047000.1,N
1526839195.5,286047000.6,N
